Home   Weather   Dalian   Past weeks

Flag for China Past Weather in Dalian, Liaoning, China — Yesterday and Last 2 Weeks

Now
36 °F

Fog.


Feels Like: 36 °F
Forecast: 44 / 53 °F
Wind: No wind

Location: Dalian Airport

Current Time: Dec 3, 2016 at 6:39:11 am

Latest Report: Dec 3, 2016 at 6:00 am


Visibility: 2 mi

Pressure: 30.27 "Hg

Humidity: 87%

Dew Point: 32 °F

Location of DalianLocation

Past Weather in Dalian — Graph

°F

Dalian Temperature Yesterday

Maximum temperature yesterday: 52 °F (at 11:30 am)
Minimum temperature yesterday: 28 °F (at 12:00 am)
Average temperature yesterday: 42 °F

High & Low Weather Summary for the Past Weeks

 TemperatureHumidityPressure
High57 °F (Nov 18, 11:30 am)100% (Nov 19, 2:00 am)30.60 "Hg (Nov 19, 2:00 am)
Low19 °F (Nov 23, 6:00 am)22% (Dec 1, 2:00 pm)29.86 "Hg (Nov 19, 12:00 am)
Average37 °F61%30.32 "Hg
* Reported Nov 18 5:00 am — Dec 3 5:00 am, Dalian, Weather by CustomWeather, © 2016

Note: Actual official high and low records may vary slightly from our data, if they occured in-between our weather recording intervals... More about our weather records

Advertising

Dalian Weather History for the Previous 24 Hours

Scroll right to see more
 ConditionsComfort  
Time TempWeatherWind HumidityBarometerVisibility
5:00 am
Sat, Dec 3
43 °FFog.3 mph71%30.27 "Hg2 mi
4:30 am39 °FFog.3 mph75%30.30 "Hg2 mi
4:00 am37 °FFog.1 mph81%30.30 "Hg2 mi
3:30 am36 °FFog.1 mph81%30.30 "Hg2 mi
3:00 am37 °FFog.1 mph81%30.30 "Hg2 mi
2:30 am37 °FFog.1 mph70%30.30 "Hg2 mi
2:00 am39 °FFog.1 mph70%30.30 "Hg3 mi
1:00 am41 °FClear.1 mph61%30.30 "Hg10 mi
12:30 am39 °FClear.1 mph65%30.33 "Hg10 mi
12:00 am43 °FClear.No wind57%30.33 "Hg10 mi
11:30 pm
Fri, Dec 2
43 °FPassing clouds.3 mph57%30.33 "HgN/A
11:00 pm43 °FClear.1 mph57%30.33 "Hg10 mi
10:30 pm43 °FPassing clouds.3 mph57%30.33 "HgN/A
10:00 pm43 °FPassing clouds.3 mph57%30.33 "HgN/A
9:30 pm43 °FClear.1 mph61%30.33 "Hg10 mi
9:00 pm43 °FPassing clouds.3 mph61%30.33 "HgN/A
8:30 pm43 °FPassing clouds.3 mph57%30.33 "HgN/A
8:00 pm43 °FClear.3 mph61%30.33 "Hg10 mi
7:30 pm43 °FClear.6 mph61%30.33 "Hg10 mi
7:00 pm43 °FClear.6 mph61%30.33 "Hg10 mi
6:30 pm45 °FPassing clouds.6 mph61%30.33 "HgN/A
6:00 pm45 °FClear.6 mph61%30.33 "Hg10 mi
5:30 pm45 °FClear.8 mph57%30.33 "Hg10 mi
5:00 pm45 °FPassing clouds.8 mph57%30.33 "HgN/A
4:30 pm46 °FSunny.10 mph53%30.36 "Hg10 mi
4:00 pm48 °FSunny.10 mph50%30.36 "Hg10 mi
3:30 pm50 °FPassing clouds.10 mph47%30.36 "HgN/A
3:00 pm50 °FSunny.15 mph43%30.33 "Hg10 mi
2:30 pm52 °FSunny.13 mph44%30.36 "Hg10 mi
2:00 pm52 °FSunny.13 mph47%30.36 "Hg10 mi
1:30 pm52 °FSunny.15 mph47%30.36 "Hg10 mi
1:00 pm52 °FSunny.15 mph47%30.36 "Hg10 mi
12:30 pm52 °FSunny.20 mph47%30.36 "Hg10 mi
12:00 pm50 °FSunny.15 mph50%30.39 "Hg10 mi
11:30 am52 °FSunny.13 mph47%30.39 "Hg10 mi
11:00 am50 °FSunny.17 mph47%30.42 "Hg10 mi
10:30 am50 °FSunny.17 mph50%30.42 "Hg10 mi
10:00 am48 °FSunny.13 mph54%30.42 "Hg10 mi
9:30 am48 °FSunny.13 mph54%30.42 "Hg10 mi
9:00 am46 °FSunny.10 mph57%30.42 "Hg10 mi
8:30 am45 °FPassing clouds.6 mph61%30.42 "HgN/A
8:00 am41 °FSunny.No wind66%30.42 "Hg10 mi
7:30 am37 °FSunny.1 mph70%30.42 "Hg10 mi
7:00 am32 °FSunny.1 mph75%30.42 "Hg10 mi
6:30 am30 °FClear.1 mph80%30.42 "Hg10 mi
6:00 am32 °FClear.1 mph75%30.42 "Hg10 mi
Weather by CustomWeather, © 2016

See weather overviewHow to use our weather pages